SL-16 DEB, 22343

Orbit data source: Space-Track

SL-16 DEB, 22343 is space debris in LEO originally from a launch on Fri, 25 Dec 1992 UTC launched from the Tyuratam Missile And Space Complex (TTMTR). Debris objects in space refer to the collection of defunct objects orbiting the Earth. Examples of debris include non-operational satellites, rocket bodies, and fragments generated from explosions, collisions, or faulty payload assembly.

Loading next visibility...
Identifier
22343, 1992-093AG
Orbit
LEO
Country
Flag of CISCIS
Related business
Manufacturer
Unknown
Mission
Spacecraft
Bus & Motor
Unknown
Mass
Unknown
Launch date (UTC)
1992-12-25 (33 years ago)
Launch vehicle
Unknown
Launch site
Tyuratam Missile And Space Complex (TTMTR)
Object type
Payload
Rocket body
Debris
Shape & HBR
Unknown shape, 0.4 m
Radar Cross Section
Medium (>0.1 m² and <1 m²)

Expand to show TLE details & history
Last TLE update: 8 hours ago

TLE from 8 hours ago
0 SL-16 DEB
1 22343U 92093AG  26133.42745888  .00000271  00000-0  16671-3 0  9992
2 22343  70.9603 189.3215 0094841 236.0414 144.1599 14.12085778711304
Epoch: 2026-05-13T10:15Z
TLE epoch observation values (Epoch: 2026-05-13T10:15:32.447Z)
Latitude
19.65387°
Longitude
171.29124°
Altitude
910.015 km
Speed
7.37 km/s
True Right ascension
13h 05m 27s
True Declination
19° 32' 51"
Sunlit
Object was in full shadow at epoch
Visualization orbit readout
Latitude
Unknown
Longitude
Unknown
Altitude
Unknown
Speed
Unknown
Apparent Right ascension
Unknown
Apparent Declination
Unknown
Sunlit
N/A
Visualization observer readout
Local Sidereal Time
02:57:31
Azimuth
Unknown
Elevation
Unknown
Doppler factor
Unknown
Orbital elements
Apogee altitude
918.728 km
Perigee altitude
781.62 km
Semi-major axis
7,228.311 km
Eccentricity
0.00948
Inclination
70.9603°
RAAN
189.3215°
Arg. of periapsis
236.0414°
True anomaly
144.79018°
Mean anomaly
144.1599°
Eccentric anomaly
144.47564°
Mean motion
3.53173 °/min
Orbital period
101.93 mins
BSTAR
0.00016671
Loading maneuver chart data...
Computing Atmospheric mass density...
Loading historical data...
Loading historical data...
Loading historical data...
Loading historical data...
Loading historical data...
Loading historical data...
Loading historical data...

Documentation

Showing up to 5 results
|